TAP30G GMMN-LPPT

Flight info

Callsign TAP30G
Flight time 1h 4m
Altitude 36000
Route LAKAM UR722 AMSEL DCT VATZI
Aircraft A321/M-SDE3FGHIRWY/LB1

Departure

Time 2026-05-07 18:14
Airport Mohammed V International Airport (GMMN)

Arrival

Time 2026-05-07 19:19
Airport Lisbon Humberto Delgado Airport (LPPT)
Time Latitude Longitude Altitude Speed Heading
2026-05-07 17:38 33.37255 -7.58224 650 ft 0 kts 75°
2026-05-07 17:53 33.37252 -7.58237 649 ft 2 kts 75°
2026-05-07 17:53 33.37248 -7.58256 649 ft 2 kts 75°
2026-05-07 17:54 33.37244 -7.58275 651 ft 2 kts 75°
2026-05-07 17:54 33.37240 -7.58294 653 ft 2 kts 85°
2026-05-07 17:54 33.37241 -7.58313 653 ft 2 kts 126°
2026-05-07 17:54 33.37248 -7.58322 653 ft 0 kts 179°
2026-05-07 17:57 33.37214 -7.58311 651 ft 14 kts 163°
2026-05-07 17:57 33.37098 -7.58269 650 ft 17 kts 164°
2026-05-07 17:57 33.36997 -7.58236 650 ft 12 kts 165°
2026-05-07 17:57 33.36941 -7.58267 650 ft 9 kts 246°
2026-05-07 17:58 33.36915 -7.58365 651 ft 13 kts 253°
2026-05-07 17:58 33.36881 -7.58456 651 ft 11 kts 214°
2026-05-07 17:58 33.36812 -7.58449 651 ft 9 kts 163°
2026-05-07 17:58 33.36745 -7.58426 651 ft 13 kts 164°
2026-05-07 17:59 33.36617 -7.58382 652 ft 23 kts 164°
2026-05-07 17:59 33.36467 -7.58331 652 ft 22 kts 164°
2026-05-07 17:59 33.36329 -7.58283 653 ft 20 kts 164°
2026-05-07 17:59 33.36205 -7.58241 653 ft 18 kts 164°
2026-05-07 18:00 33.36094 -7.58204 655 ft 16 kts 164°
2026-05-07 18:00 33.35967 -7.58160 654 ft 22 kts 163°
2026-05-07 18:00 33.35823 -7.58111 657 ft 21 kts 164°
2026-05-07 18:00 33.35691 -7.58066 655 ft 19 kts 164°
2026-05-07 18:01 33.35573 -7.58025 656 ft 17 kts 164°
2026-05-07 18:01 33.35469 -7.57990 656 ft 15 kts 164°
2026-05-07 18:01 33.35378 -7.57958 657 ft 13 kts 164°
2026-05-07 18:01 33.35313 -7.57944 657 ft 8 kts 185°
2026-05-07 18:02 33.35295 -7.57951 657 ft 0 kts 203°
2026-05-07 18:04 33.35285 -7.57957 657 ft 6 kts 208°
2026-05-07 18:05 33.35257 -7.57999 657 ft 6 kts 246°
2026-05-07 18:05 33.35256 -7.58002 657 ft 0 kts 246°
2026-05-07 18:09 33.35255 -7.58005 657 ft 3 kts 246°
2026-05-07 18:09 33.35245 -7.58042 657 ft 5 kts 252°
2026-05-07 18:09 33.35238 -7.58066 657 ft 0 kts 253°
2026-05-07 18:11 33.35222 -7.58134 657 ft 10 kts 253°
2026-05-07 18:11 33.35205 -7.58203 658 ft 8 kts 254°
2026-05-07 18:12 33.35204 -7.58250 658 ft 4 kts 309°
2026-05-07 18:12 33.35224 -7.58265 659 ft 3 kts 340°
2026-05-07 18:12 33.35233 -7.58268 659 ft 0 kts 344°
2026-05-07 18:13 33.35243 -7.58271 659 ft 7 kts 344°
2026-05-07 18:13 33.35421 -7.58331 657 ft 57 kts 344°
2026-05-07 18:14 33.36005 -7.58531 653 ft 114 kts 344°
2026-05-07 18:14 33.36917 -7.58843 652 ft 157 kts 344°
2026-05-07 18:14 33.38013 -7.59216 1078 ft 163 kts 343°
2026-05-07 18:14 33.39109 -7.59608 1657 ft 167 kts 345°
2026-05-07 18:15 33.40253 -7.60010 2021 ft 179 kts 346°
2026-05-07 18:15 33.41490 -7.60575 2108 ft 203 kts 335°
2026-05-07 18:15 33.42720 -7.61590 2358 ft 225 kts 321°
2026-05-07 18:15 33.43742 -7.63041 3111 ft 231 kts 307°
2026-05-07 18:16 33.44627 -7.64663 3845 ft 235 kts 305°
2026-05-07 18:16 33.45534 -7.66318 4554 ft 239 kts 303°
2026-05-07 18:16 33.46456 -7.67993 5251 ft 243 kts 302°
2026-05-07 18:16 33.47386 -7.69679 5930 ft 247 kts 300°
2026-05-07 18:17 33.48352 -7.71433 6591 ft 253 kts 301°
2026-05-07 18:17 33.49318 -7.73181 7243 ft 257 kts 300°
2026-05-07 18:17 33.50311 -7.74971 7930 ft 260 kts 300°
2026-05-07 18:17 33.51318 -7.76780 8601 ft 263 kts 299°
2026-05-07 18:18 33.52339 -7.78619 9061 ft 266 kts 299°
2026-05-07 18:18 33.53573 -7.80370 9438 ft 289 kts 319°
2026-05-07 18:18 33.55459 -7.81367 9910 ft 307 kts 348°
2026-05-07 18:18 33.57668 -7.81383 10143 ft 330 kts
2026-05-07 18:19 33.60032 -7.81139 10264 ft 351 kts
2026-05-07 18:19 33.62513 -7.80813 10588 ft 363 kts
2026-05-07 18:19 33.65037 -7.80459 11135 ft 368 kts
2026-05-07 18:19 33.67597 -7.80103 11687 ft 372 kts
2026-05-07 18:20 33.70181 -7.79761 12279 ft 375 kts
2026-05-07 18:20 33.72787 -7.79434 12885 ft 379 kts
2026-05-07 18:20 33.75423 -7.79114 13473 ft 382 kts
2026-05-07 18:20 33.78078 -7.78796 14020 ft 386 kts
2026-05-07 18:21 33.80759 -7.78475 14543 ft 388 kts
2026-05-07 18:21 33.83461 -7.78150 15066 ft 391 kts
2026-05-07 18:21 33.86179 -7.77821 15595 ft 394 kts
2026-05-07 18:21 33.88910 -7.77488 16110 ft 396 kts
2026-05-07 18:22 33.91664 -7.77152 16614 ft 399 kts
2026-05-07 18:22 33.93497 -7.76928 16944 ft 401 kts
2026-05-07 18:22 33.97226 -7.76472 17624 ft 404 kts
2026-05-07 18:22 34.00034 -7.76128 18112 ft 407 kts
2026-05-07 18:23 34.02855 -7.75784 18538 ft 410 kts
2026-05-07 18:23 34.05707 -7.75438 18943 ft 412 kts
2026-05-07 18:23 34.08568 -7.75090 19342 ft 415 kts
2026-05-07 18:23 34.11447 -7.74735 19723 ft 418 kts
2026-05-07 18:24 34.14351 -7.74378 20090 ft 420 kts
2026-05-07 18:24 34.17266 -7.74019 20449 ft 423 kts
2026-05-07 18:24 34.20192 -7.73928 20782 ft 420 kts 352°
2026-05-07 18:24 34.23079 -7.74135 21124 ft 422 kts 351°
2026-05-07 18:25 34.26016 -7.74346 21490 ft 424 kts 351°
2026-05-07 18:25 34.28971 -7.74554 21835 ft 427 kts 351°
2026-05-07 18:25 34.31946 -7.74762 22181 ft 429 kts 351°
2026-05-07 18:25 34.34935 -7.74967 22520 ft 432 kts 351°
2026-05-07 18:26 34.37944 -7.75172 22858 ft 434 kts 351°
2026-05-07 18:26 34.40966 -7.75378 23201 ft 436 kts 351°
2026-05-07 18:26 34.44006 -7.75592 23542 ft 439 kts 351°
2026-05-07 18:26 34.47060 -7.75804 23836 ft 441 kts 351°
2026-05-07 18:27 34.50127 -7.76017 24159 ft 443 kts 351°
2026-05-07 18:27 34.53206 -7.76227 24460 ft 444 kts 351°
2026-05-07 18:27 34.56300 -7.76439 24776 ft 446 kts 351°
2026-05-07 18:27 34.58397 -7.76584 24988 ft 447 kts 351°
2026-05-07 18:28 34.62511 -7.76873 25396 ft 449 kts 351°
2026-05-07 18:28 34.65640 -7.77094 25710 ft 450 kts 351°
2026-05-07 18:28 34.68771 -7.77317 26006 ft 452 kts 350°
2026-05-07 18:28 34.71912 -7.77540 26307 ft 453 kts 350°
2026-05-07 18:29 34.75065 -7.77763 26624 ft 455 kts 350°
2026-05-07 18:29 34.78236 -7.78001 26905 ft 456 kts 350°
2026-05-07 18:29 34.81405 -7.78261 27190 ft 458 kts 349°
2026-05-07 18:29 34.84591 -7.78539 27470 ft 459 kts 349°
2026-05-07 18:30 34.87780 -7.78821 27752 ft 461 kts 349°
2026-05-07 18:30 34.90986 -7.79100 28026 ft 462 kts 349°
2026-05-07 18:30 34.94197 -7.79373 28305 ft 464 kts 349°
2026-05-07 18:30 34.97423 -7.79641 28577 ft 466 kts 349°
2026-05-07 18:31 35.00670 -7.79908 28861 ft 467 kts 349°
2026-05-07 18:31 35.03921 -7.80177 29100 ft 469 kts 350°
2026-05-07 18:31 35.07179 -7.80448 29351 ft 471 kts 350°
2026-05-07 18:31 35.10462 -7.80719 29598 ft 472 kts 350°
2026-05-07 18:32 35.13740 -7.80992 29842 ft 474 kts 349°
2026-05-07 18:32 35.17038 -7.81271 30058 ft 475 kts 349°
2026-05-07 18:32 35.20343 -7.81551 30245 ft 476 kts 349°
2026-05-07 18:32 35.23654 -7.81836 30425 ft 478 kts 349°
2026-05-07 18:33 35.26961 -7.82116 30609 ft 479 kts 350°
2026-05-07 18:33 35.30255 -7.82390 30766 ft 481 kts 350°
2026-05-07 18:33 35.33603 -7.82671 30962 ft 481 kts 350°
2026-05-07 18:33 35.36929 -7.82954 31202 ft 480 kts 349°
2026-05-07 18:34 35.40263 -7.83239 31440 ft 479 kts 349°
2026-05-07 18:34 35.43597 -7.83523 31677 ft 479 kts 349°
2026-05-07 18:34 35.46920 -7.83811 31916 ft 478 kts 349°
2026-05-07 18:34 35.50230 -7.84104 32174 ft 478 kts 349°
2026-05-07 18:35 35.53547 -7.84403 32409 ft 477 kts 349°
2026-05-07 18:35 35.56867 -7.84707 32641 ft 477 kts 349°
2026-05-07 18:35 35.59063 -7.84911 32798 ft 477 kts 349°
2026-05-07 18:35 35.62361 -7.85216 33038 ft 476 kts 349°
2026-05-07 18:36 35.65670 -7.85520 33278 ft 475 kts 349°
2026-05-07 18:36 35.68970 -7.85820 33513 ft 475 kts 348°
2026-05-07 18:36 35.72266 -7.86120 33746 ft 475 kts 348°
2026-05-07 18:36 35.75555 -7.86418 33973 ft 474 kts 348°
2026-05-07 18:37 35.78845 -7.86717 34179 ft 473 kts 348°
2026-05-07 18:37 35.82126 -7.87015 34379 ft 473 kts 348°
2026-05-07 18:37 35.85410 -7.87314 34581 ft 472 kts 348°
2026-05-07 18:37 35.88682 -7.87610 34782 ft 472 kts 348°
2026-05-07 18:38 35.91949 -7.87905 34981 ft 471 kts 348°
2026-05-07 18:38 35.95131 -7.88418 35167 ft 460 kts 338°
2026-05-07 18:38 35.98085 -7.89713 35335 ft 446 kts 327°
2026-05-07 18:38 36.00902 -7.91316 35517 ft 446 kts 326°
2026-05-07 18:39 36.03712 -7.92936 35702 ft 445 kts 326°
2026-05-07 18:39 36.06508 -7.94566 35876 ft 445 kts 326°
2026-05-07 18:39 36.09267 -7.96256 35953 ft 439 kts 322°
2026-05-07 18:40 36.14538 -7.99952 35950 ft 435 kts 322°
2026-05-07 18:40 36.19918 -8.03447 35952 ft 438 kts 325°
2026-05-07 18:41 36.25454 -8.06656 35953 ft 440 kts 327°
2026-05-07 18:41 36.30989 -8.09776 35950 ft 440 kts 326°
2026-05-07 18:42 36.36532 -8.12968 35952 ft 439 kts 326°
2026-05-07 18:42 36.42052 -8.16205 35942 ft 439 kts 326°
2026-05-07 18:43 36.47572 -8.19451 35972 ft 439 kts 326°
2026-05-07 18:43 36.53085 -8.22701 35960 ft 439 kts 326°
2026-05-07 18:44 36.58614 -8.25945 35949 ft 439 kts 326°
2026-05-07 18:44 36.64140 -8.29182 35928 ft 439 kts 326°
2026-05-07 18:45 36.69657 -8.32431 35933 ft 439 kts 326°
2026-05-07 18:45 36.75173 -8.35694 35963 ft 439 kts 325°
2026-05-07 18:46 36.80268 -8.38714 35934 ft 440 kts 326°
2026-05-07 18:46 36.85364 -8.41724 35935 ft 441 kts 326°
2026-05-07 18:47 36.90917 -8.45010 35930 ft 442 kts 326°
2026-05-07 18:47 36.96475 -8.48308 35939 ft 444 kts 325°
2026-05-07 18:47 36.99292 -8.49994 35367 ft 452 kts 325°
2026-05-07 18:48 37.02132 -8.51696 34618 ft 453 kts 326°
2026-05-07 18:48 37.04988 -8.53398 33763 ft 457 kts 326°
2026-05-07 18:48 37.07869 -8.55110 32947 ft 457 kts 327°
2026-05-07 18:48 37.10721 -8.56801 32467 ft 451 kts 327°
2026-05-07 18:49 37.13544 -8.58480 31896 ft 447 kts 327°
2026-05-07 18:49 37.16341 -8.60147 31343 ft 444 kts 327°
2026-05-07 18:49 37.19123 -8.61812 30793 ft 441 kts 327°
2026-05-07 18:49 37.21878 -8.63464 30258 ft 437 kts 328°
2026-05-07 18:50 37.24616 -8.65105 29655 ft 434 kts 328°
2026-05-07 18:50 37.27327 -8.66730 29143 ft 428 kts 328°
2026-05-07 18:50 37.29998 -8.68332 28622 ft 423 kts 328°
2026-05-07 18:50 37.32636 -8.69914 28107 ft 418 kts 328°
2026-05-07 18:51 37.35246 -8.71482 27607 ft 413 kts 328°
2026-05-07 18:51 37.37828 -8.73034 27115 ft 408 kts 328°
2026-05-07 18:51 37.40378 -8.74569 26639 ft 403 kts 328°
2026-05-07 18:51 37.42891 -8.76084 26180 ft 397 kts 328°
2026-05-07 18:52 37.45366 -8.77574 25716 ft 392 kts 328°
2026-05-07 18:52 37.47805 -8.79043 25278 ft 387 kts 328°
2026-05-07 18:52 37.50232 -8.80509 24844 ft 383 kts 328°
2026-05-07 18:52 37.52618 -8.81955 24417 ft 379 kts 328°
2026-05-07 18:53 37.54985 -8.83392 23997 ft 375 kts 329°
2026-05-07 18:53 37.57328 -8.84815 23583 ft 372 kts 329°
2026-05-07 18:53 37.59632 -8.86174 23129 ft 370 kts 333°
2026-05-07 18:53 37.62075 -8.87234 22727 ft 371 kts 337°
2026-05-07 18:54 37.64554 -8.88237 22300 ft 370 kts 337°
2026-05-07 18:54 37.66999 -8.89227 21887 ft 368 kts 337°
2026-05-07 18:54 37.69432 -8.90214 21466 ft 366 kts 337°
2026-05-07 18:54 37.71842 -8.91193 21053 ft 363 kts 337°
2026-05-07 18:55 37.74236 -8.92168 20633 ft 361 kts 337°
2026-05-07 18:55 37.76620 -8.93140 20196 ft 358 kts 337°
2026-05-07 18:55 37.78989 -8.94105 19793 ft 356 kts 337°
2026-05-07 18:55 37.81329 -8.95059 19387 ft 353 kts 337°
2026-05-07 18:56 37.83636 -8.96001 18986 ft 351 kts 337°
2026-05-07 18:56 37.85955 -8.96947 18566 ft 349 kts 337°
2026-05-07 18:56 37.88255 -8.97888 18152 ft 347 kts 337°
2026-05-07 18:56 37.90543 -8.98825 17712 ft 344 kts 337°
2026-05-07 18:57 37.92814 -8.99753 17326 ft 342 kts 338°
2026-05-07 18:57 37.95067 -9.00675 16927 ft 340 kts 338°
2026-05-07 18:57 37.97307 -9.01593 16818 ft 339 kts 338°
2026-05-07 18:57 37.99557 -9.02517 16677 ft 339 kts 338°
2026-05-07 18:58 38.01809 -9.03447 16221 ft 342 kts 338°
2026-05-07 18:58 38.04070 -9.04394 15803 ft 339 kts 338°
2026-05-07 18:58 38.06302 -9.05336 15362 ft 337 kts 338°
2026-05-07 18:58 38.08518 -9.06278 14917 ft 336 kts 338°
2026-05-07 18:59 38.10728 -9.07219 14488 ft 334 kts 339°
2026-05-07 18:59 38.12926 -9.08156 14092 ft 332 kts 339°
2026-05-07 18:59 38.15115 -9.08876 13960 ft 322 kts 353°
2026-05-07 18:59 38.17306 -9.08724 13708 ft 312 kts 14°
2026-05-07 19:00 38.19288 -9.07693 13246 ft 306 kts 34°
2026-05-07 19:00 38.20876 -9.05945 12773 ft 300 kts 52°
2026-05-07 19:00 38.22234 -9.03949 12299 ft 298 kts 51°
2026-05-07 19:00 38.23593 -9.01971 11815 ft 295 kts 51°
2026-05-07 19:01 38.24922 -9.00043 11396 ft 291 kts 51°
2026-05-07 19:01 38.26224 -8.98159 11154 ft 278 kts 51°
2026-05-07 19:01 38.27494 -8.96319 10867 ft 274 kts 51°
2026-05-07 19:01 38.28742 -8.94507 10584 ft 271 kts 51°
2026-05-07 19:02 38.30071 -8.92819 10261 ft 272 kts 34°
2026-05-07 19:02 38.31816 -8.91915 9790 ft 276 kts
2026-05-07 19:02 38.33708 -8.92147 9388 ft 273 kts 338°
2026-05-07 19:02 38.35300 -8.93364 8994 ft 266 kts 314°
2026-05-07 19:03 38.36630 -8.94984 8601 ft 262 kts 313°
2026-05-07 19:03 38.37941 -8.96587 8217 ft 261 kts 313°
2026-05-07 19:03 38.39002 -8.98403 7835 ft 253 kts 288°
2026-05-07 19:03 38.39307 -9.00549 7459 ft 243 kts 262°
2026-05-07 19:04 38.38853 -9.02571 7086 ft 236 kts 237°
2026-05-07 19:04 38.37959 -9.04283 6938 ft 229 kts 233°
2026-05-07 19:04 38.37068 -9.05978 6945 ft 231 kts 233°
2026-05-07 19:04 38.36178 -9.07687 6947 ft 232 kts 234°
2026-05-07 19:05 38.35290 -9.09398 6952 ft 231 kts 234°
2026-05-07 19:05 38.34579 -9.11237 6948 ft 233 kts 252°
2026-05-07 19:05 38.34246 -9.13240 6948 ft 234 kts 257°
2026-05-07 19:05 38.33936 -9.15305 6947 ft 234 kts 257°
2026-05-07 19:06 38.33627 -9.17313 6948 ft 234 kts 256°
2026-05-07 19:06 38.33000 -9.21391 6947 ft 233 kts 256°
2026-05-07 19:06 38.32763 -9.23432 6945 ft 235 kts 267°
2026-05-07 19:07 38.32953 -9.25512 6949 ft 238 kts 278°
2026-05-07 19:07 38.33288 -9.27578 6947 ft 238 kts 278°
2026-05-07 19:07 38.33616 -9.29624 6948 ft 239 kts 279°
2026-05-07 19:07 38.33944 -9.31697 6947 ft 239 kts 279°
2026-05-07 19:08 38.34272 -9.33777 6947 ft 239 kts 279°
2026-05-07 19:08 38.34624 -9.35850 6946 ft 240 kts 284°
2026-05-07 19:08 38.35338 -9.37784 6947 ft 244 kts 301°
2026-05-07 19:08 38.36292 -9.39570 6951 ft 244 kts 301°
2026-05-07 19:09 38.37242 -9.41362 6951 ft 244 kts 301°
2026-05-07 19:09 38.38187 -9.43150 6953 ft 243 kts 301°
2026-05-07 19:09 38.39131 -9.44947 6953 ft 243 kts 300°
2026-05-07 19:09 38.40079 -9.46733 6959 ft 244 kts 304°
2026-05-07 19:10 38.41280 -9.48241 6951 ft 244 kts 322°
2026-05-07 19:10 38.42694 -9.49435 6951 ft 244 kts 324°
2026-05-07 19:10 38.44262 -9.50253 6948 ft 248 kts 349°
2026-05-07 19:10 38.45979 -9.50091 6947 ft 252 kts 18°
2026-05-07 19:11 38.47453 -9.48908 6948 ft 254 kts 47°
2026-05-07 19:11 38.48439 -9.47037 6877 ft 257 kts 60°
2026-05-07 19:11 38.49342 -9.45080 6625 ft 255 kts 61°
2026-05-07 19:11 38.50243 -9.43133 6380 ft 254 kts 60°
2026-05-07 19:12 38.51138 -9.41204 6119 ft 251 kts 60°
2026-05-07 19:12 38.52028 -9.39288 5811 ft 251 kts 60°
2026-05-07 19:12 38.52911 -9.37382 5472 ft 247 kts 60°
2026-05-07 19:12 38.53754 -9.35559 5167 ft 237 kts 59°
2026-05-07 19:13 38.54578 -9.33780 4847 ft 230 kts 59°
2026-05-07 19:13 38.55386 -9.32032 4508 ft 226 kts 58°
2026-05-07 19:13 38.56177 -9.30315 4181 ft 221 kts 57°
2026-05-07 19:13 38.56926 -9.28685 4033 ft 203 kts 57°
2026-05-07 19:14 38.57612 -9.27184 4031 ft 192 kts 57°
2026-05-07 19:14 38.58286 -9.25719 4034 ft 190 kts 57°
2026-05-07 19:14 38.58987 -9.24283 4014 ft 190 kts 47°
2026-05-07 19:14 38.60000 -9.23264 3865 ft 184 kts 21°
2026-05-07 19:15 38.61174 -9.22633 3640 ft 182 kts 18°
2026-05-07 19:15 38.62336 -9.22018 3414 ft 180 kts 18°
2026-05-07 19:15 38.63489 -9.21406 3179 ft 179 kts 18°
2026-05-07 19:15 38.64641 -9.20792 2932 ft 178 kts 18°
2026-05-07 19:16 38.65776 -9.20188 2698 ft 178 kts 18°
2026-05-07 19:16 38.66940 -9.19569 2455 ft 183 kts 17°
2026-05-07 19:16 38.68111 -9.18945 2174 ft 182 kts 18°
2026-05-07 19:16 38.69281 -9.18321 1936 ft 180 kts 18°
2026-05-07 19:17 38.70374 -9.17735 1694 ft 161 kts 18°
2026-05-07 19:17 38.71362 -9.17206 1462 ft 149 kts 16°
2026-05-07 19:17 38.72313 -9.16707 1315 ft 147 kts 17°
2026-05-07 19:17 38.73254 -9.16200 1133 ft 147 kts 18°
2026-05-07 19:18 38.74183 -9.15701 964 ft 142 kts 17°
2026-05-07 19:18 38.74786 -9.15386 800 ft 141 kts 17°
2026-05-07 19:18 38.75689 -9.14898 585 ft 142 kts 18°
2026-05-07 19:18 38.76600 -9.14409 389 ft 141 kts 18°
2026-05-07 19:19 38.77417 -9.13979 349 ft 95 kts 23°
2026-05-07 19:19 38.77837 -9.13751 347 ft 57 kts 22°
2026-05-07 19:19 38.78146 -9.13587 348 ft 26 kts 26°
2026-05-07 19:19 38.78295 -9.13457 350 ft 25 kts 43°
2026-05-07 19:20 38.78363 -9.13365 351 ft 10 kts 47°
2026-05-07 19:20 38.78373 -9.13294 346 ft 7 kts 115°
2026-05-07 19:20 38.78336 -9.13266 352 ft 5 kts 173°
2026-05-07 19:20 38.78296 -9.13276 353 ft 9 kts 198°
2026-05-07 19:21 38.78238 -9.13305 353 ft 9 kts 201°
2026-05-07 19:21 38.78186 -9.13332 350 ft 8 kts 202°
2026-05-07 19:21 38.78114 -9.13369 350 ft 19 kts 202°
2026-05-07 19:21 38.77964 -9.13452 348 ft 24 kts 204°
2026-05-07 19:22 38.77809 -9.13537 351 ft 24 kts 203°
2026-05-07 19:22 38.77680 -9.13600 352 ft 17 kts 188°
2026-05-07 19:22 38.77569 -9.13576 346 ft 16 kts 168°
2026-05-07 19:22 38.77469 -9.13549 347 ft 14 kts 168°
2026-05-07 19:23 38.77381 -9.13525 350 ft 6 kts 168°
2026-05-07 19:23 38.77362 -9.13520 347 ft 0 kts 168°
2026-05-07 19:25 38.77340 -9.13514 351 ft 12 kts 168°
2026-05-07 19:26 38.77215 -9.13481 347 ft 20 kts 168°
2026-05-07 19:26 38.77084 -9.13446 351 ft 19 kts 168°
2026-05-07 19:26 38.76961 -9.13411 349 ft 18 kts 168°
2026-05-07 19:26 38.76846 -9.13381 350 ft 16 kts 168°
2026-05-07 19:27 38.76741 -9.13387 349 ft 15 kts 209°
2026-05-07 19:27 38.76662 -9.13467 350 ft 14 kts 240°
2026-05-07 19:27 38.76637 -9.13584 350 ft 14 kts 257°
2026-05-07 19:27 38.76591 -9.13661 350 ft 11 kts 172°
2026-05-07 19:28 38.76543 -9.13707 353 ft 9 kts 255°
2026-05-07 19:28 38.76529 -9.13787 349 ft 9 kts 258°
2026-05-07 19:28 38.76507 -9.13843 352 ft 5 kts 186°
2026-05-07 19:28 38.76477 -9.13837 351 ft 4 kts 167°
2026-05-07 19:29 38.76453 -9.13830 353 ft 3 kts 167°
2026-05-07 19:29 38.76447 -9.13828 351 ft 0 kts 168°